Showing default

AFR-1, 56964

Orbit data source: Space-Track

AFR-1, 56964 is a payload satellite owned by Azista BST (IN) in SSO that was launched on Mon, 12 Jun 2023 UTC via an FALCON 9 launch vehicle from the Air Force Western Test Range (AFWTR). Payload-class satellites include a variety of spacecraft equipped with specific instruments for various scientific and technological missions. These include communications satellites like Starlink; space stations such as the ISS; scientific satellites like the Hubble; Earth observation satellites from companies like Planet Labs, Umbra, and HawkEye 360; GPS; miniature CubeSats for education and research; and military/defense satellites.

Loading next visibility...
Identifier
56964, 2023-084AJ
Orbit
SSO
Country
Flag of ININ / IND
Related business
Manufacturer
Azista BST
Mission
Operational Commercial Imaging
Bus & Motor
AFR, Unknown motor
Mass
80 kg wet, 80 kg dry
Launch date (UTC)
2023-06-12 (3 years ago)
Launch vehicle
FALCON 9
Launch site
Air Force Western Test Range (AFWTR)
Object type
Payload
Rocket body
Debris
Shape & HBR
Box + 1 Pan, 0.5 m
Radar Cross Section
1.100 m², Medium (>0.1 m² and < 1m²)

Expand to show TLE details & history
Last TLE update: 6 hours ago

TLE from 6 hours ago
0 AFR-1
1 56964U 23084AJ  26207.30987207  .00004858  00000-0  17587-3 0  9996
2 56964  97.6315 344.9617 0010122 192.8871 167.2111 15.28860172173201
Epoch: 2026-07-26T07:26Z
TLE epoch observation values (Epoch: 2026-07-26T07:26:12.946Z)
Latitude
-0.00006°
Longitude
-70.60188°
Altitude
489.085 km
Speed
7.617 km/s
True Right ascension
22h 59m 50s
True Declination
0° 00' 00"
Sunlit
Object was in full shadow at epoch
Visualization orbit readout
Latitude
Unknown
Longitude
Unknown
Altitude
Unknown
Speed
Unknown
Apparent Right ascension
Unknown
Apparent Declination
Unknown
Sunlit
N/A
Visualization observer readout
Local Sidereal Time
03:05:06
Azimuth
Unknown
Elevation
Unknown
Doppler factor
Unknown
Orbital elements
Apogee altitude
483.12 km
Perigee altitude
469.244 km
Semi-major axis
6,854.319 km
Eccentricity
0.00101
Inclination
97.6315°
RAAN
344.9617°
Arg. of periapsis
192.8871°
True anomaly
167.23674°
Mean anomaly
167.2111°
Eccentric anomaly
167.22393°
Mean motion
3.82469 °/min
Orbital period
94.13 mins
BSTAR
0.00017587
Loading maneuver chart data...
Computing Atmospheric mass density...

Documentation

Showing up to 5 results
|